This demonstration page uses our WeatherBlox Daily Observations layout. Learn more.

Left ArrowRight Arrow

Hourly Observations for June 20, 2021

Temp ( °F °C ) Dew Point ( °F °C ) Humidity (%) Winds ( mph kmh ) Pressure ( in mb ) Visibility ( mi km ) Precip ( " mm )
12:15 am 00:15 Mostly Cloudy 72 22 68 20 88 88 N N/A 29.84 1010 10 16 N/A
12:35 am 00:35 Mostly Cloudy with Thunderstorms 70 21 68 20 94 94 N N/A 29.84 1010 10 16 N/A
12:55 am 00:55 Cloudy with Nearby Thunderstorms 70 21 68 20 94 94 W 8 13 29.86 1011 3 5 N/A
1:15 am 01:15 Mostly Cloudy 68 20 68 20 100 100 SSW 6 9 29.85 1011 10 16 N/A
1:35 am 01:35 Mostly Cloudy 68 20 68 20 100 100 SW 3 6 29.85 1011 10 16 N/A
1:55 am 01:55 Mostly Cloudy 66 19 66 19 100 100 N N/A 29.85 1011 10 16 N/A
2:15 am 02:15 Partly Cloudy 66 19 66 19 100 100 N N/A 29.84 1011 10 16 N/A
2:35 am 02:35 Clear 64 18 64 18 100 100 S 6 9 29.84 1011 7 11 N/A
2:55 am 02:55 Clear 64 18 64 18 100 100 WSW 3 6 29.84 1011 10 16 N/A
3:15 am 03:15 Clear 64 18 64 18 100 100 W 6 9 29.84 1011 10 16 N/A
3:35 am 03:35 Clear 63 17 63 17 100 100 W 3 6 29.85 1011 10 16 N/A
3:55 am 03:55 Clear 63 17 63 17 100 100 N N/A 29.85 1011 10 16 N/A
4:15 am 04:15 Clear 63 17 63 17 100 100 N N/A 29.85 1011 7 11 N/A
4:35 am 04:35 Clear with Mist and Fog 61 16 61 16 100 100 N N/A 29.85 1011 4 6 N/A
4:55 am 04:55 Clear 61 16 61 16 100 100 W 3 6 29.86 1011 7 11 N/A
5:15 am 05:15 Clear 61 16 61 16 100 100 W 3 6 29.86 1011 10 16 N/A
5:35 am 05:35 Clear 61 16 61 16 100 100 N N/A 29.85 1011 10 16 N/A
5:55 am 05:55 Sunny 61 16 61 16 100 100 N N/A 29.85 1011 7 11 N/A
6:15 am 06:15 Sunny 61 16 61 16 100 100 W 5 7 29.86 1011 7 11 N/A
6:35 am 06:35 Sunny 61 16 61 16 100 100 N N/A 29.88 1012 7 11 N/A
6:55 am 06:55 Partly Cloudy 61 16 61 16 100 100 N N/A 29.88 1012 10 16 N/A
7:15 am 07:15 Partly Cloudy 61 16 61 16 100 100 N N/A 29.89 1012 10 16 N/A
7:35 am 07:35 Mostly Cloudy 61 16 61 16 100 100 N N/A 29.90 1012 10 16 N/A
7:55 am 07:55 Cloudy 63 17 63 17 100 100 N N/A 29.90 1012 10 16 N/A
8:15 am 08:15 Cloudy 63 17 63 17 100 100 N N/A 29.90 1012 10 16 N/A
8:35 am 08:35 Partly Cloudy 64 18 63 17 94 94 N N/A 29.89 1012 10 16 N/A
8:55 am 08:55 Sunny 68 20 63 17 83 83 SW 3 6 29.89 1012 10 16 N/A
9:15 am 09:15 Sunny 70 21 63 17 78 78 SSW 6 9 29.88 1012 10 16 N/A
9:35 am 09:35 Sunny 72 22 64 18 78 78 S 3 6 29.88 1012 10 16 N/A
9:55 am 09:55 Sunny 72 22 64 18 78 78 N N/A 29.87 1011 10 16 N/A
10:15 am 10:15 Sunny 73 23 64 18 74 74 N N/A 29.86 1011 10 16 N/A
10:35 am 10:35 Sunny 77 25 66 19 69 69 N N/A 29.84 1011 10 16 N/A
10:55 am 10:55 Sunny 79 26 66 19 65 65 WSW 6 9 29.84 1011 10 16 N/A
11:15 am 11:15 Sunny 79 26 66 19 65 65 SSW 3 6 29.85 1011 10 16 N/A
11:35 am 11:35 Sunny 81 27 64 18 58 58 W 3 6 29.84 1011 10 16 N/A
11:55 am 11:55 Sunny 81 27 64 18 58 58 SW 3 6 29.84 1011 10 16 N/A
12:15 pm 12:15 Partly Cloudy 81 27 64 18 58 58 WSW 3 6 29.84 1011 10 16 N/A
12:35 pm 12:35 Partly Cloudy 82 28 64 18 55 55 N N/A 29.83 1010 10 16 N/A
12:55 pm 12:55 Partly Cloudy 82 28 64 18 55 55 S 7 11 29.83 1010 10 16 N/A
1:15 pm 13:15 Partly Cloudy 82 28 66 19 58 58 SSW 5 7 29.81 1009 10 16 N/A
1:35 pm 13:35 Partly Cloudy 84 29 64 18 51 51 SSW 5 7 29.81 1009 10 16 N/A
1:55 pm 13:55 Partly Cloudy 86 30 64 18 49 49 N N/A 29.80 1009 10 16 N/A
2:15 pm 14:15 Partly Cloudy 88 31 66 19 49 49 SW 5 7 29.80 1009 10 16 N/A
2:35 pm 14:35 Partly Cloudy 86 30 66 19 52 52 SSW 5 7 29.79 1009 10 16 N/A
2:55 pm 14:55 Sunny 88 31 64 18 46 46 SSW 7 11 29.79 1009 10 16 N/A
3:15 pm 15:15 Partly Cloudy 88 31 66 19 49 49 WSW 8 13 29.79 1009 10 16 N/A
3:35 pm 15:35 Partly Cloudy 88 31 64 18 46 46 SSW 8 13 29.78 1008 10 16 N/A
3:55 pm 15:55 Sunny 88 31 64 18 46 46 SW 5 7 29.78 1008 10 16 N/A
4:15 pm 16:15 Sunny 90 32 66 19 46 46 S 6 9 29.77 1008 10 16 N/A
4:35 pm 16:35 Sunny 90 32 68 20 49 49 SSW 12 19 29.77 1008 10 16 N/A
4:55 pm 16:55 Partly Cloudy 88 31 68 20 52 52 S 10 17 29.76 1008 10 16 N/A
5:15 pm 17:15 Sunny 88 31 68 20 52 52 S 10 17 29.76 1008 10 16 N/A
5:35 pm 17:35 Sunny 88 31 68 20 52 52 S 9 15 29.76 1008 10 16 N/A
5:55 pm 17:55 Partly Cloudy 88 31 68 20 52 52 S 13 20 29.76 1008 10 16 N/A
6:15 pm 18:15 Partly Cloudy 86 30 70 21 59 59 S 15 24 29.76 1008 10 16 N/A
6:35 pm 18:35 Partly Cloudy 86 30 70 21 59 59 S 9 15 29.76 1008 10 16 N/A
6:55 pm 18:55 Sunny 86 30 70 21 59 59 S 8 13 29.77 1008 10 16 N/A
7:15 pm 19:15 Sunny 86 30 70 21 59 59 S 10 17 29.77 1008 10 16 N/A
7:35 pm 19:35 Sunny 84 29 70 21 62 62 SSW 6 9 29.78 1008 10 16 N/A
7:55 pm 19:55 Sunny 82 28 70 21 66 66 SSW 6 9 29.78 1008 10 16 N/A
8:15 pm 20:15 Sunny 82 28 70 21 66 66 SSW 7 11 29.78 1008 10 16 N/A
8:35 pm 20:35 Sunny 81 27 70 21 70 70 S 5 7 29.78 1009 10 16 N/A
8:55 pm 20:55 Clear 81 27 70 21 70 70 SSW 8 13 29.78 1009 10 16 N/A
9:15 pm 21:15 Clear 79 26 70 21 74 74 SSW 6 9 29.79 1009 10 16 N/A
9:35 pm 21:35 Clear 79 26 70 21 74 74 SW 5 7 29.78 1009 10 16 N/A
9:55 pm 21:55 Clear 79 26 70 21 74 74 S 5 7 29.78 1009 10 16 N/A
10:15 pm 22:15 Clear 77 25 70 21 79 79 S 6 9 29.78 1009 10 16 N/A
10:35 pm 22:35 Clear 77 25 70 21 79 79 S 7 11 29.78 1009 10 16 N/A
10:55 pm 22:55 Clear 75 24 70 21 83 83 S 6 9 29.79 1009 10 16 N/A
11:35 pm 23:35 Clear 73 23 70 21 89 89 S 7 11 29.80 1009 10 16 N/A
11:55 pm 23:55 Clear 73 23 70 21 89 89 S 7 11 29.79 1009 10 16 N/A

Powered by AerisWeather